[[{"header":{"parameterUnit":"m.s-1","parameterCategory":1,"la1":30.2992,"la2":30.254,"lo1":-89.0895,"lo2":-89.0443,"dy":0.0025,"dx":0.0025,"nx":19,"ny":19,"refTime":"2026-04-26T21:00:00:Z","depth":0,"parameterNumber":2,"parameterNumberName":"U-component_of_WINDS"},"data":[0,0,0,-3.7851,-3.7853,-3.7947,-3.7947,-3.8074,-3.8075,0,0,0,0,0,0,0,0,0,0,0,-3.7828,-3.7829,-3.7851,-3.7853,-3.7947,-3.7947,-3.8074,-3.8075,0,0,0,0,0,0,0,0,0,0,0,-3.7828,-3.7829,-3.783,-3.7854,-3.7947,-3.7947,-3.8074,-3.8,0,0,0,0,0,0,0,0,0,0,-3.7908,-3.7892,-3.7829,-3.7831,-3.7854,-3.7947,-3.7947,-3.7997,-3.8005,-3.8035,0,-3.8064,0,-3.8072,-3.8084,-3.8085,0,0,0,-3.7849,-3.7885,-3.7906,-3.7831,-3.7855,-3.7947,-3.7904,-3.8001,-3.801,-3.8046,-3.8066,-3.807,-3.8074,-3.8085,-3.8086,-3.8275,-3.8276,0,0,-3.7844,-3.7848,-3.79,-3.7912,-3.7899,-3.7901,-3.7907,-3.8007,-3.8028,-3.8066,-3.8073,-3.8076,-3.8086,-3.8087,-3.8274,-3.8276,0,0,0,-3.7832,-3.7844,-3.7862,-3.7907,-3.7924,-3.7903,-3.791,-3.8023,-3.8029,-3.8074,-3.8077,-3.8087,-3.8089,-3.8273,-3.8275,-3.8331,0,0,0,-3.7829,-3.7837,-3.786,-3.7863,-3.7922,-3.7975,-3.7925,-3.8022,-3.8033,-3.8077,-3.8087,-3.809,-3.8272,-3.8274,-3.8327,-3.8356,0,0,0,-3.7821,-3.7836,-3.7852,-3.7863,-3.7904,-3.7973,-3.7985,-3.8024,-3.8036,-3.8085,-3.809,-3.8271,-3.8274,-3.8323,-3.835,-3.8406,0,0,0,-3.7812,-3.79,-3.7852,-3.7951,-3.7903,-3.8008,-3.7984,-3.8062,-3.8111,-3.8088,-3.8272,-3.8275,-3.8322,-3.8346,-3.8402,-3.8453,-3.8475,0,0,-3.7924,-3.7913,-3.7971,-3.7932,-3.8046,-3.7993,-3.8116,-3.8157,-3.8158,-3.8236,-3.8241,-3.8328,-3.8349,-3.8405,-3.8599,-3.8616,0,0,0,-3.8007,-3.8049,-3.8078,-3.8126,-3.8161,-3.8192,-3.8215,-3.823,-3.8297,-3.8199,-3.8364,-3.8377,-3.8409,-3.8433,-3.8448,-3.8475,-3.8286,-3.8286,-3.8286,-3.8169,-3.8167,-3.8262,-3.8272,-3.8319,-3.8342,-3.8379,-3.8404,-3.8387,-3.8427,-3.8449,-3.8567,-3.8595,-3.8606,-3.8635,-3.8477,-3.8477,-3.8478,-3.8478,-3.8331,-3.8389,-3.8367,-3.8451,-3.8449,-3.852,-3.8546,-3.8532,-3.8597,-3.855,-3.8578,-3.8525,-3.8625,-3.865,-3.8482,-3.8481,-3.8481,-3.848,-3.848,-3.8435,-3.8462,-3.8481,-3.855,-3.8603,-3.861,-3.8674,-3.867,-3.8666,-3.8694,-3.8717,-3.8716,-3.8713,-3.8706,-3.8706,-3.8707,-3.8707,-3.8707,-3.8708,-3.8534,-3.8554,-3.8608,-3.8653,-3.8684,-3.8723,-3.8748,-3.8778,-3.8809,-3.88,-3.8801,-3.878,-3.8637,-3.8599,-3.8714,-3.8713,-3.8712,-3.8711,-3.8711,-3.8696,-3.8659,-3.8743,-3.8774,-3.8827,-3.888,-3.8875,-3.8935,-3.8959,-3.899,-3.8965,-3.886,-3.8848,-3.8836,-3.8805,-3.8966,-3.8966,-3.8966,-3.8966,-3.8782,-3.8777,-3.8862,-3.8911,-3.8959,-3.8963,-3.9057,-3.9079,-3.9094,-3.9109,-3.9085,-3.9045,-3.9033,-3.9028,-3.9012,-3.8983,-3.9185,-3.9186,-3.9186,-3.8881,-3.888,-3.8961,-3.8977,-3.9019,-3.9054,-3.9143,-3.92,-3.921,-3.9194,-3.912,-3.911,-3.9045,-3.9024,-3.9004,-3.898,-3.8926,0,0]},{"header":{"parameterUnit":"m.s-1","parameterCategory":1,"la1":30.2992,"la2":30.254,"lo1":-89.0895,"lo2":-89.0443,"dy":0.0025,"dx":0.0025,"nx":19,"ny":19,"refTime":"2026-04-26T21:00:00:Z","depth":0,"parameterNumber":3,"parameterNumberName":"V-component_of_WINDS"},"data":[0,0,0,4.2371,4.2373,4.2479,4.248,4.2611,4.2612,0,0,0,0,0,0,0,0,0,0,0,4.2339,4.234,4.2371,4.2373,4.2479,4.248,4.261,4.2612,0,0,0,0,0,0,0,0,0,0,0,4.2338,4.2339,4.2341,4.2374,4.2479,4.248,4.261,4.2531,0,0,0,0,0,0,0,0,0,0,4.2429,4.2399,4.2339,4.2341,4.2374,4.2479,4.248,4.2528,4.2536,4.2562,0,4.2585,0,4.2601,4.262,4.2621,0,0,0,4.2373,4.2392,4.2421,4.2341,4.2375,4.2479,4.2431,4.2532,4.2542,4.2573,4.2587,4.2592,4.2603,4.2621,4.2622,4.2773,4.2774,0,0,4.2368,4.2357,4.2415,4.2428,4.2413,4.2428,4.2435,4.2538,4.2552,4.2588,4.2595,4.2605,4.2622,4.2623,4.2772,4.2773,0,0,0,4.2351,4.2353,4.238,4.2422,4.2442,4.2431,4.2439,4.2548,4.2558,4.2597,4.2607,4.2623,4.2625,4.2772,4.2773,4.2799,0,0,0,4.2347,4.2343,4.2377,4.2372,4.244,4.2497,4.2446,4.255,4.2563,4.2606,4.2623,4.2626,4.2771,4.2772,4.2797,4.2813,0,0,0,4.2332,4.2341,4.2357,4.2371,4.2416,4.2495,4.2511,4.2553,4.2569,4.2621,4.2626,4.277,4.2772,4.2795,4.281,4.2851,0,0,0,4.2312,4.2376,4.2357,4.2432,4.2415,4.2511,4.251,4.2582,4.2629,4.2624,4.2771,4.2773,4.2794,4.2808,4.2849,4.2885,4.2899,0,0,4.2387,4.2385,4.243,4.2416,4.2513,4.2496,4.2596,4.2649,4.2662,4.2735,4.2739,4.2798,4.281,4.2851,4.2979,4.299,0,0,0,4.2451,4.2483,4.2511,4.2558,4.2601,4.264,4.2678,4.2698,4.2761,4.2698,4.2824,4.2831,4.2856,4.2873,4.2883,4.2905,4.278,4.278,4.278,4.2541,4.2557,4.2634,4.2663,4.2708,4.2748,4.2786,4.2819,4.2819,4.2849,4.2871,4.2947,4.2968,4.2975,4.2998,4.2891,4.2891,4.2891,4.2891,4.2653,4.2703,4.2705,4.278,4.2796,4.2858,4.29,4.2899,4.2958,4.2931,4.2954,4.2924,4.2987,4.3007,4.2893,4.2893,4.2892,4.2892,4.2892,4.2715,4.2742,4.2767,4.2837,4.2889,4.2915,4.2973,4.2985,4.2995,4.3018,4.3043,4.3043,4.3045,4.3029,4.3029,4.3029,4.303,4.303,4.303,4.2771,4.2798,4.2847,4.29,4.2932,4.2975,4.3017,4.3049,4.3086,4.309,4.309,4.3089,4.299,4.2965,4.3034,4.3033,4.3033,4.3033,4.3032,4.2881,4.2858,4.2934,4.2967,4.303,4.3082,4.3096,4.3159,4.3186,4.3215,4.3209,4.3134,4.3132,4.3124,4.3104,4.3205,4.3205,4.3205,4.3205,4.2934,4.2935,4.3016,4.3068,4.3119,4.314,4.3225,4.3258,4.3288,4.3306,4.3293,4.3267,4.3259,4.3261,4.3251,4.3232,4.3364,4.3364,4.3364,4.3003,4.301,4.308,4.3112,4.3163,4.3206,4.3286,4.3344,4.3373,4.3371,4.332,4.3314,4.3272,4.3257,4.3254,4.3238,4.3204,0,0]}]]